Location: Chervonnoye
(48.6000°N, 34.4000°E)
Time: 19:14:59
(UTC+00:00)

RS-44 - Pass Details

Date: 05 December 2021
Orbit: 1175 x 1510 km, 82.5° (Epoch: 18 January)

Event Time Altitude Azimuth Distance (km) Brightness Sun altitude
Rises 03:55:34 0° 350° (N) 4,154 ? -13.0°
Reaches altitude 10° 03:58:11 10° 350° (N) 3,216 ? -12.6°
Maximum altitude 04:05:47 87° 80° (E) 1,310 ? -11.4°
Drops below altitude 10° 04:13:57 10° 171° (S) 3,437 ? -10.2°
Sets 04:16:50 0° 172° (S) 4,453 ? -9.8°
